When you browse on this site, cookies collect data to enhance your experience and personalize the content and advertising you see.
Visit our Privacy Policy to learn more. By continuing to use the site, you agree to this use of cookies and data.
  • en Belgique
  • Liste des pays
  • À 7 jours
  • Température de l'eau
  • Carte météo
  • Widgets météo
  • user-avatar
    Se connecter

    Météo par heure à Dunkerque

    Ce jour, 7 Avril, Mardi

    Heure Température Précipitation Vent Pression Humidité
    00:00 +7°C° 0 mm 3 m/s 770 mmHg 77%
    01:00 +7°C° 0 mm 2 m/s 771 mmHg 79%
    02:00 +7°C° 0 mm 2 m/s 771 mmHg 80%
    03:00 +8°C° 0 mm 1 m/s 771 mmHg 81%
    04:00 +8°C° 0 mm 1 m/s 772 mmHg 80%
    05:00 +8°C° 0 mm 1 m/s 772 mmHg 80%
    06:00 +8°C° 0 mm 1 m/s 772 mmHg 80%
    07:00 +10°C° 0 mm 1 m/s 772 mmHg 75%
    08:00 +12°C° 0 mm 2 m/s 772 mmHg 69%
    09:00 +14°C° 0 mm 2 m/s 773 mmHg 64%
    10:00 +14°C° 0 mm 3 m/s 772 mmHg 61%
    11:00 +16°C° 0 mm 3 m/s 772 mmHg 58%
    12:00 +17°C° 0 mm 4 m/s 772 mmHg 54%
    13:00 +18°C° 0 mm 4 m/s 772 mmHg 54%
    14:00 +18°C° 0 mm 4 m/s 771 mmHg 53%
    15:00 +18°C° 0 mm 4 m/s 771 mmHg 53%
    16:00 +17°C° 0 mm 4 m/s 771 mmHg 58%
    17:00 +15°C° 0 mm 4 m/s 770 mmHg 64%
    18:00 +14°C° 0 mm 4 m/s 770 mmHg 69%
    19:00 +13°C° 0 mm 4 m/s 770 mmHg 71%
    20:00 +13°C° 0 mm 4 m/s 770 mmHg 73%
    21:00 +12°C° 0 mm 3 m/s 770 mmHg 75%
    22:00 +12°C° 0 mm 3 m/s 770 mmHg 78%
    23:00 +12°C° 0 mm 3 m/s 770 mmHg 80%

    Demain, 8 Avril, Mercredi

    Heure Température Précipitation Vent Pression Humidité
    00:00 +13°C° 0 mm 2 m/s 770 mmHg 83%
    01:00 +13°C° 0 mm 2 m/s 769 mmHg 85%
    02:00 +13°C° 0 mm 2 m/s 769 mmHg 86%
    03:00 +13°C° 0 mm 2 m/s 769 mmHg 88%
    04:00 +13°C° 0 mm 2 m/s 769 mmHg 88%
    05:00 +13°C° 0 mm 1 m/s 769 mmHg 88%
    06:00 +13°C° 0 mm 1 m/s 768 mmHg 88%
    07:00 +14°C° 0 mm 1 m/s 768 mmHg 81%
    08:00 +16°C° 0 mm 1 m/s 768 mmHg 74%
    09:00 +19°C° 0 mm 1 m/s 768 mmHg 67%
    10:00 +20°C° 0 mm 1 m/s 768 mmHg 63%
    11:00 +21°C° 0 mm 1 m/s 768 mmHg 58%
    12:00 +22°C° 0 mm 1 m/s 768 mmHg 54%
    13:00 +21°C° 0.1 mm 2 m/s 767 mmHg 54%
    14:00 +21°C° 0.1 mm 2 m/s 767 mmHg 54%
    15:00 +21°C° 0.1 mm 2 m/s 767 mmHg 54%
    16:00 +20°C° 0 mm 2 m/s 767 mmHg 60%
    17:00 +18°C° 0 mm 2 m/s 767 mmHg 67%
    18:00 +17°C° 0 mm 2 m/s 766 mmHg 73%
    19:00 +16°C° 0 mm 2 m/s 767 mmHg 74%
    20:00 +15°C° 0 mm 2 m/s 767 mmHg 75%
    21:00 +14°C° 0 mm 2 m/s 767 mmHg 76%
    22:00 +14°C° 0 mm 2 m/s 767 mmHg 77%
    23:00 +14°C° 0 mm 2 m/s 767 mmHg 77%

    Après-demain, 9 Avril, Jeudi

    Heure Température Précipitation Vent Pression Humidité
    00:00 +13°C° 0 mm 2 m/s 767 mmHg 78%
    01:00 +13°C° 0 mm 1 m/s 767 mmHg 80%
    02:00 +13°C° 0 mm 1 m/s 767 mmHg 81%
    03:00 +12°C° 0 mm 0 m/s 767 mmHg 83%
    04:00 +13°C° 0 mm 1 m/s 767 mmHg 83%
    05:00 +13°C° 0 mm 1 m/s 767 mmHg 82%
    06:00 +13°C° 0 mm 2 m/s 767 mmHg 82%
    07:00 +14°C° 0 mm 2 m/s 768 mmHg 77%
    08:00 +16°C° 0 mm 2 m/s 768 mmHg 72%
    09:00 +18°C° 0 mm 2 m/s 768 mmHg 66%
    10:00 +19°C° 0 mm 2 m/s 768 mmHg 63%
    11:00 +20°C° 0 mm 2 m/s 768 mmHg 59%
    12:00 +21°C° 0 mm 3 m/s 768 mmHg 55%
    13:00 +21°C° 0.1 mm 3 m/s 768 mmHg 58%
    14:00 +20°C° 0.1 mm 4 m/s 768 mmHg 60%
    15:00 +20°C° 0.1 mm 4 m/s 768 mmHg 63%
    16:00 +18°C° 0 mm 4 m/s 768 mmHg 68%
    17:00 +17°C° 0 mm 4 m/s 768 mmHg 73%
    18:00 +15°C° 0 mm 5 m/s 768 mmHg 77%
    19:00 +14°C° 0 mm 5 m/s 768 mmHg 78%
    20:00 +13°C° 0 mm 5 m/s 768 mmHg 79%
    21:00 +13°C° 0 mm 4 m/s 768 mmHg 79%
    22:00 +13°C° 0 mm 4 m/s 769 mmHg 81%
    23:00 +13°C° 0 mm 4 m/s 769 mmHg 83%

    10 Avril, Vendredi

    Heure Température Précipitation Vent Pression Humidité
    00:00 +13°C° 0 mm 4 m/s 769 mmHg 85%
    01:00 +12°C° 0 mm 4 m/s 768 mmHg 86%
    02:00 +12°C° 0 mm 4 m/s 768 mmHg 87%
    03:00 +12°C° 0 mm 4 m/s 768 mmHg 87%
    04:00 +12°C° 0 mm 4 m/s 768 mmHg 87%
    05:00 +12°C° 0 mm 3 m/s 768 mmHg 87%
    06:00 +12°C° 0 mm 3 m/s 768 mmHg 87%
    07:00 +13°C° 0 mm 3 m/s 768 mmHg 81%
    08:00 +16°C° 0 mm 3 m/s 768 mmHg 75%
    09:00 +18°C° 0 mm 3 m/s 768 mmHg 69%
    10:00 +19°C° 0 mm 2 m/s 768 mmHg 64%
    11:00 +20°C° 0 mm 2 m/s 768 mmHg 59%
    12:00 +21°C° 0 mm 2 m/s 768 mmHg 54%
    13:00 +21°C° 0.1 mm 2 m/s 767 mmHg 54%
    14:00 +21°C° 0.1 mm 2 m/s 767 mmHg 55%
    15:00 +22°C° 0.1 mm 1 m/s 766 mmHg 55%
    16:00 +21°C° 0 mm 1 m/s 766 mmHg 60%
    17:00 +20°C° 0 mm 1 m/s 766 mmHg 65%
    18:00 +19°C° 0 mm 1 m/s 766 mmHg 69%
    19:00 +19°C° 0 mm 1 m/s 766 mmHg 70%
    20:00 +18°C° 0 mm 1 m/s 766 mmHg 71%
    21:00 +15°C° 0 mm 0 m/s 766 mmHg 72%
    22:00 +16°C° 0 mm 1 m/s 766 mmHg 73%
    23:00 +15°C° 0 mm 1 m/s 766 mmHg 74%

    11 Avril, Samedi

    Heure Température Précipitation Vent Pression Humidité
    00:00 +15°C° 0 mm 1 m/s 766 mmHg 75%
    01:00 +15°C° 0 mm 2 m/s 766 mmHg 77%
    02:00 +14°C° 0 mm 2 m/s 766 mmHg 78%
    03:00 +14°C° 0 mm 2 m/s 765 mmHg 79%
    04:00 +14°C° 0 mm 2 m/s 765 mmHg 79%
    05:00 +14°C° 0 mm 2 m/s 765 mmHg 80%
    06:00 +14°C° 0 mm 2 m/s 765 mmHg 80%
    07:00 +15°C° 0 mm 2 m/s 765 mmHg 75%
    08:00 +17°C° 0 mm 2 m/s 766 mmHg 69%
    09:00 +19°C° 0 mm 2 m/s 766 mmHg 64%
    10:00 +19°C° 0.1 mm 2 m/s 765 mmHg 62%
    11:00 +20°C° 0.1 mm 2 m/s 765 mmHg 59%
    12:00 +20°C° 0.1 mm 2 m/s 765 mmHg 57%
    13:00 +20°C° 0.2 mm 2 m/s 765 mmHg 59%
    14:00 +20°C° 0.2 mm 2 m/s 765 mmHg 62%
    15:00 +19°C° 0.2 mm 2 m/s 764 mmHg 64%
    16:00 +18°C° 0.1 mm 2 m/s 764 mmHg 69%
    17:00 +18°C° 0.1 mm 1 m/s 764 mmHg 74%
    18:00 +16°C° 0.1 mm 1 m/s 764 mmHg 79%
    19:00 +15°C° 0 mm 2 m/s 764 mmHg 81%
    20:00 +14°C° 0 mm 2 m/s 764 mmHg 83%
    21:00 +12°C° 0 mm 3 m/s 764 mmHg 86%
    22:00 +13°C° 0 mm 2 m/s 764 mmHg 87%
    23:00 +12°C° 0 mm 2 m/s 764 mmHg 89%

    12 Avril, Dimanche

    Heure Température Précipitation Vent Pression Humidité
    00:00 +12°C° 0 mm 2 m/s 764 mmHg 90%
    01:00 +12°C° 0 mm 2 m/s 763 mmHg 90%
    02:00 +12°C° 0 mm 2 m/s 762 mmHg 90%
    03:00 +12°C° 0 mm 2 m/s 762 mmHg 90%
    04:00 +12°C° 0 mm 2 m/s 761 mmHg 90%
    05:00 +11°C° 0 mm 3 m/s 761 mmHg 90%
    06:00 +11°C° 0 mm 3 m/s 760 mmHg 90%
    07:00 +12°C° 0.1 mm 3 m/s 760 mmHg 87%
    08:00 +14°C° 0.1 mm 3 m/s 759 mmHg 84%
    09:00 +16°C° 0.1 mm 3 m/s 759 mmHg 80%
    10:00 +17°C° 0.4 mm 2 m/s 758 mmHg 77%
    11:00 +17°C° 0.4 mm 2 m/s 758 mmHg 73%
    12:00 +18°C° 0.4 mm 2 m/s 757 mmHg 70%
    13:00 +18°C° 0.6 mm 3 m/s 757 mmHg 72%
    14:00 +18°C° 0.6 mm 4 m/s 756 mmHg 74%
    15:00 +16°C° 0.6 mm 5 m/s 756 mmHg 77%
    16:00 +17°C° 0.6 mm 4 m/s 756 mmHg 79%
    17:00 +15°C° 0.6 mm 4 m/s 756 mmHg 81%
    18:00 +14°C° 0.6 mm 4 m/s 756 mmHg 84%
    19:00 +13°C° 0.1 mm 4 m/s 757 mmHg 86%
    20:00 +13°C° 0.1 mm 4 m/s 758 mmHg 88%
    21:00 +13°C° 0.1 mm 4 m/s 758 mmHg 89%
    22:00 +13°C° 0.1 mm 3 m/s 759 mmHg 90%
    23:00 +13°C° 0.1 mm 3 m/s 759 mmHg 90%
    Voir plus